| time (UTC) | temp C | wind direction | speed KPH | gust KPH | rain 1hr cm | rain 24hr cm | rain mn cm | humidity % | barometer mb |
| 20260504201512 | 22 | 76 | 1.6 | 0.0 | 0.00 | 0.00 | 0.00 | 41 | 1009.1 |
| 20260504200011 | 22 | 195 | 1.6 | 0.0 | 0.00 | 0.00 | 0.00 | 40 | 1009.2 |
| 20260504194510 | 22 | 161 | 1.6 | 0.0 | 0.00 | 0.00 | 0.00 | 40 | 1009.4 |
| 20260504193011 | 22 | 198 | 1.6 | 0.0 | 0.00 | 0.00 | 0.00 | 38 | 1009.6 |
| 20260504191506 | 22 | 95 | 0.0 | 0.0 | 0.00 | 0.00 | 0.00 | 40 | 1009.9 |
| 20260504190004 | 22 | 86 | 1.6 | 0.0 | 0.00 | 0.00 | 0.00 | 39 | 1010.1 |
| 20260504184503 | 22 | 163 | 1.6 | 0.0 | 0.00 | 0.00 | 0.00 | 40 | 1010.4 |
| 20260504183002 | 21 | 198 | 3.2 | 0.0 | 0.00 | 0.00 | 0.00 | 38 | 1010.6 |
| 20260504181600 | 22 | 209 | 1.6 | 0.0 | 0.00 | 0.00 | 0.00 | 40 | 1010.8 |
| 20260504180058 | 22 | 204 | 1.6 | 0.0 | 0.00 | 0.00 | 0.00 | 40 | 1010.9 |
| 20260504174556 | 22 | 180 | 1.6 | 0.0 | 0.00 | 0.00 | 0.00 | 40 | 1011.0 |
| 20260504173055 | 21 | 198 | 0.0 | 0.0 | 0.00 | 0.00 | 0.00 | 40 | 1011.2 |
| 20260504171554 | 21 | 196 | 1.6 | 0.0 | 0.00 | 0.00 | 0.00 | 41 | 1011.5 |
| 20260504120120 | 13 | 252 | 0.0 | 0.0 | 0.00 | 0.00 | 0.00 | 55 | 1013.6 |
| 20260504110105 | 11 | 38 | 0.0 | 0.0 | 0.00 | 0.00 | 0.00 | 60 | 1013.8 |
| 20260504081545 | 11 | 232 | 0.0 | 0.0 | 0.00 | 0.00 | 0.00 | 62 | 1014.0 |
| 20260504050025 | 10 | 332 | 0.0 | 0.0 | 0.00 | 0.00 | 0.00 | 62 | 1014.2 |
| 20260504044525 | 9 | 332 | 0.0 | 0.0 | 0.00 | 0.00 | 0.00 | 61 | 1014.3 |
| 20260504043024 | 9 | 332 | 0.0 | 0.0 | 0.00 | 0.00 | 0.00 | 61 | 1014.2 |
| 20260504041524 | 9 | 332 | 0.0 | 0.0 | 0.00 | 0.00 | 0.00 | 62 | 1014.3 |
| 20260504040020 | 9 | 332 | 0.0 | 0.0 | 0.00 | 0.00 | 0.00 | 61 | 1014.2 |
| 20260504034529 | 8 | 332 | 0.0 | 0.0 | 0.00 | 0.00 | 0.00 | 62 | 1014.1 |
| 20260504033033 | 8 | 331 | 0.0 | 0.0 | 0.00 | 0.00 | 0.00 | 65 | 1014.0 |
| 20260504031518 | 8 | 331 | 0.0 | 0.0 | 0.00 | 0.00 | 0.00 | 66 | 1013.9 |
| 20260504030017 | 8 | 331 | 0.0 | 0.0 | 0.00 | 0.00 | 0.00 | 64 | 1013.6 |
| 20260504024538 | 8 | 332 | 0.0 | 0.0 | 0.00 | 0.00 | 0.00 | 66 | 1013.7 |
| 20260504023016 | 8 | 331 | 0.0 | 0.0 | 0.00 | 0.00 | 0.00 | 64 | 1013.7 |
| 20260504021516 | 9 | 331 | 0.0 | 0.0 | 0.00 | 0.00 | 0.00 | 62 | 1013.8 |
| 20260504020016 | 9 | 332 | 0.0 | 0.0 | 0.00 | 0.00 | 0.00 | 61 | 1013.6 |
| 20260504014515 | 10 | 331 | 0.0 | 0.0 | 0.00 | 0.00 | 0.00 | 60 | 1013.6 |
| 20260504013016 | 10 | 331 | 0.0 | 0.0 | 0.00 | 0.00 | 0.00 | 57 | 1013.6 |
| 20260504011515 | 11 | 332 | 0.0 | 0.0 | 0.00 | 0.00 | 0.00 | 54 | 1013.4 |
| 20260504010014 | 11 | 332 | 0.0 | 0.0 | 0.00 | 0.00 | 0.00 | 52 | 1013.3 |
| 20260504004532 | 12 | 332 | 0.0 | 0.0 | 0.00 | 0.00 | 0.00 | 48 | 1013.3 |
| 20260504003013 | 12 | 332 | 0.0 | 0.0 | 0.00 | 0.00 | 0.00 | 45 | 1013.1 |
| 20260504001512 | 13 | 332 | 0.0 | 0.0 | 0.00 | 0.00 | 0.00 | 40 | 1012.9 |
| 20260504000011 | 15 | 332 | 0.0 | 0.0 | 0.00 | 0.00 | 0.00 | 36 | 1012.8 |
| 20260503234510 | 15 | 332 | 0.0 | 0.0 | 0.00 | 0.00 | 0.00 | 34 | 1012.7 |
| 20260503233008 | 16 | 325 | 0.0 | 0.0 | 0.00 | 0.00 | 0.00 | 33 | 1012.6 |
| 20260503231509 | 16 | 360 | 0.0 | 0.0 | 0.00 | 0.00 | 0.00 | 32 | 1012.5 |
| 20260503230008 | 16 | 313 | 0.0 | 0.0 | 0.00 | 0.00 | 0.00 | 31 | 1012.5 |
| 20260503224508 | 17 | 312 | 1.6 | 0.0 | 0.00 | 0.00 | 0.00 | 30 | 1012.6 |
| 20260503223006 | 17 | 291 | 1.6 | 0.0 | 0.00 | 0.00 | 0.00 | 29 | 1012.7 |
| 20260503221507 | 17 | 315 | 3.2 | 0.0 | 0.00 | 0.00 | 0.00 | 29 | 1012.6 |
| 20260503220007 | 17 | 331 | 1.6 | 0.0 | 0.00 | 0.00 | 0.00 | 29 | 1012.7 |
| 20260503214505 | 17 | 301 | 1.6 | 0.0 | 0.00 | 0.00 | 0.00 | 29 | 1012.5 |
| 20260503213007 | 17 | 294 | 1.6 | 0.0 | 0.00 | 0.00 | 0.00 | 30 | 1012.5 |
| 20260503211503 | 17 | 341 | 1.6 | 0.0 | 0.00 | 0.00 | 0.00 | 31 | 1012.5 |
| 20260503210003 | 17 | 294 | 3.2 | 0.0 | 0.00 | 0.00 | 0.00 | 31 | 1012.5 |
| 20260503204501 | 16 | 341 | 1.6 | 0.0 | 0.00 | 0.00 | 0.00 | 33 | 1012.7 |
| 20260503203106 | 17 | 298 | 1.6 | 0.0 | 0.00 | 0.00 | 0.00 | 31 | 1012.9 |